Location: Unspecified
(0.0000°N, 0.0000°E)
Time: 13:43:51
(UTC+00:00)

JUGNU - Pass Details

Date: 10 December 2017
Orbit: 837 x 864 km, 20.0° (Epoch: 16 January)

Event Time Altitude Azimuth Distance (km) Brightness Sun altitude
Exits shadow 04:06:33 22° 6° (N) 1,742 ? -24.3°
Drops below altitude 10° 04:09:47 10° 37° (NE) 2,456 ? -23.6°
Sets 04:12:48 0° 50° (NE) 3,396 ? -22.9°
